| time (UTC) | temp F | wind direction | speed MPH | gust MPH | rain 1hr in | rain 24hr in | rain mn in | humidity % | barometer mb |
| 20260505140358 | 52 | 0 | 0.0 | 0.0 | 0.00 | 0.00 | 0.00 | 90 | 1015.6 |
| 20260505130121 | 52 | 0 | 0.0 | 0.0 | 0.00 | 0.00 | 0.00 | 90 | 1015.2 |
| 20260505124542 | 52 | 0 | 0.0 | 0.0 | 0.00 | 0.00 | 0.00 | 90 | 1015.2 |
| 20260505124029 | 52 | 0 | 0.0 | 0.0 | 0.00 | 0.00 | 0.00 | 90 | 1015.2 |
| 20260505123516 | 52 | 0 | 0.0 | 0.0 | 0.00 | 0.00 | 0.00 | 90 | 1015.2 |
| 20260505123003 | 52 | 0 | 0.0 | 0.0 | 0.00 | 0.00 | 0.00 | 90 | 1015.1 |
| 20260505122450 | 52 | 0 | 0.0 | 0.0 | 0.00 | 0.00 | 0.00 | 90 | 1015.1 |
| 20260505121939 | 52 | 0 | 0.0 | 0.0 | 0.00 | 0.00 | 0.00 | 90 | 1015.1 |
| 20260505121424 | 52 | 0 | 0.0 | 0.0 | 0.00 | 0.00 | 0.00 | 90 | 1015.1 |
| 20260505120911 | 52 | 0 | 0.0 | 0.0 | 0.00 | 0.00 | 0.00 | 90 | 1015.1 |
| 20260505120358 | 52 | 0 | 0.0 | 0.0 | 0.00 | 0.00 | 0.00 | 90 | 1015.0 |
| 20260505115845 | 52 | 0 | 0.0 | 0.0 | 0.00 | 0.00 | 0.00 | 90 | 1015.0 |
| 20260505115332 | 52 | 0 | 0.0 | 0.0 | 0.00 | 0.00 | 0.00 | 90 | 1014.9 |
| 20260505114819 | 52 | 0 | 0.0 | 0.0 | 0.00 | 0.00 | 0.00 | 90 | 1014.9 |
| 20260505114306 | 52 | 0 | 0.0 | 0.0 | 0.00 | 0.00 | 0.00 | 90 | 1014.9 |
| 20260505113240 | 52 | 0 | 0.0 | 0.0 | 0.00 | 0.00 | 0.00 | 90 | 1014.9 |
| 20260505112727 | 52 | 0 | 0.0 | 0.0 | 0.00 | 0.00 | 0.00 | 90 | 1015.0 |
| 20260505112214 | 53 | 0 | 0.0 | 7.0 | 0.00 | 0.00 | 0.00 | 90 | 1015.0 |
| 20260505111701 | 52 | 0 | 0.0 | 7.0 | 0.00 | 0.00 | 0.00 | 90 | 1014.9 |
| 20260505111148 | 52 | 155 | 0.0 | 6.0 | 0.00 | 0.00 | 0.00 | 90 | 1015.0 |
| 20260505110635 | 52 | 0 | 0.0 | 5.0 | 0.00 | 0.00 | 0.00 | 90 | 1015.0 |
| 20260505110122 | 52 | 176 | 0.0 | 5.0 | 0.00 | 0.00 | 0.00 | 89 | 1015.0 |
| 20260505101938 | 52 | 0 | 0.0 | 6.0 | 0.00 | 0.00 | 0.00 | 89 | 1014.7 |
| 20260505101425 | 53 | 0 | 0.0 | 5.0 | 0.00 | 0.00 | 0.00 | 89 | 1014.7 |
| 20260505100912 | 52 | 0 | 0.0 | 5.0 | 0.00 | 0.00 | 0.00 | 89 | 1014.7 |
| 20260505100359 | 53 | 0 | 0.0 | 6.0 | 0.00 | 0.00 | 0.00 | 89 | 1014.8 |
| 20260505095846 | 52 | 0 | 0.0 | 6.0 | 0.00 | 0.00 | 0.00 | 89 | 1014.7 |
| 20260505095333 | 53 | 0 | 0.0 | 6.0 | 0.00 | 0.00 | 0.00 | 89 | 1014.8 |
| 20260505094820 | 53 | 0 | 0.0 | 0.0 | 0.00 | 0.00 | 0.00 | 88 | 1014.7 |
| 20260505094307 | 53 | 0 | 0.0 | 6.0 | 0.00 | 0.00 | 0.00 | 88 | 1014.6 |
| 20260505093754 | 53 | 270 | 0.0 | 6.0 | 0.00 | 0.00 | 0.00 | 88 | 1014.6 |
| 20260505093241 | 53 | 267 | 1.0 | 6.0 | 0.00 | 0.00 | 0.00 | 89 | 1014.5 |
| 20260505092728 | 52 | 0 | 0.0 | 4.0 | 0.00 | 0.00 | 0.00 | 88 | 1014.5 |
| 20260505092215 | 52 | 306 | 0.0 | 4.0 | 0.00 | 0.00 | 0.00 | 89 | 1014.5 |
| 20260505090636 | 53 | 0 | 0.0 | 0.0 | 0.00 | 0.00 | 0.00 | 89 | 1014.3 |
| 20260505090123 | 52 | 0 | 0.0 | 5.0 | 0.00 | 0.00 | 0.00 | 89 | 1014.4 |
| 20260505085610 | 52 | 0 | 0.0 | 5.0 | 0.00 | 0.00 | 0.00 | 89 | 1014.3 |
| 20260505085057 | 52 | 225 | 0.0 | 5.0 | 0.00 | 0.00 | 0.00 | 89 | 1014.3 |
| 20260505084544 | 52 | 0 | 0.0 | 0.0 | 0.00 | 0.00 | 0.00 | 89 | 1014.4 |
| 20260505083518 | 53 | 0 | 0.0 | 0.0 | 0.00 | 0.00 | 0.00 | 89 | 1014.4 |
| 20260505083005 | 52 | 299 | 0.0 | 6.0 | 0.00 | 0.00 | 0.00 | 89 | 1014.5 |
| 20260505082452 | 52 | 0 | 0.0 | 6.0 | 0.00 | 0.00 | 0.00 | 89 | 1014.4 |
| 20260505081939 | 52 | 0 | 0.0 | 6.0 | 0.00 | 0.00 | 0.00 | 89 | 1014.4 |
| 20260505081426 | 52 | 182 | 2.0 | 5.0 | 0.00 | 0.00 | 0.00 | 89 | 1014.4 |
| 20260505080913 | 52 | 127 | 2.0 | 9.0 | 0.00 | 0.00 | 0.00 | 89 | 1014.4 |
| 20260505080400 | 52 | 138 | 0.0 | 9.0 | 0.00 | 0.00 | 0.00 | 89 | 1014.4 |
| 20260505075847 | 52 | 0 | 0.0 | 9.0 | 0.00 | 0.00 | 0.00 | 89 | 1014.5 |
| 20260505074821 | 52 | 0 | 0.0 | 7.0 | 0.00 | 0.00 | 0.00 | 89 | 1014.6 |
| 20260505074307 | 52 | 0 | 0.0 | 7.0 | 0.00 | 0.00 | 0.00 | 89 | 1014.6 |
| 20260505073755 | 53 | 217 | 0.0 | 7.0 | 0.00 | 0.00 | 0.00 | 89 | 1014.5 |
| 20260505073243 | 53 | 240 | 0.0 | 6.0 | 0.00 | 0.00 | 0.00 | 89 | 1014.5 |
| 20260505072728 | 52 | 242 | 3.0 | 6.0 | 0.00 | 0.00 | 0.00 | 89 | 1014.5 |
| 20260505072215 | 52 | 0 | 0.0 | 4.0 | 0.00 | 0.00 | 0.00 | 88 | 1014.4 |
| 20260505071702 | 53 | 145 | 0.0 | 4.0 | 0.00 | 0.00 | 0.00 | 88 | 1014.4 |
| 20260505071149 | 53 | 238 | 0.0 | 3.0 | 0.00 | 0.00 | 0.00 | 88 | 1014.5 |
| 20260505070636 | 52 | 238 | 0.0 | 3.0 | 0.00 | 0.00 | 0.00 | 88 | 1014.5 |
| 20260505070124 | 53 | 197 | 1.0 | 8.0 | 0.00 | 0.00 | 0.00 | 88 | 1014.5 |
| 20260505065610 | 52 | 240 | 0.0 | 8.0 | 0.00 | 0.00 | 0.00 | 88 | 1014.6 |
| 20260505065057 | 53 | 247 | 0.0 | 8.0 | 0.00 | 0.00 | 0.00 | 88 | 1014.6 |
| 20260505064545 | 52 | 0 | 0.0 | 8.0 | 0.00 | 0.00 | 0.00 | 88 | 1014.6 |
| 20260505064031 | 53 | 0 | 0.0 | 8.0 | 0.00 | 0.00 | 0.00 | 88 | 1014.7 |
| 20260505063519 | 53 | 264 | 0.0 | 7.0 | 0.00 | 0.00 | 0.00 | 88 | 1014.7 |
| 20260505063006 | 53 | 140 | 0.0 | 7.0 | 0.00 | 0.00 | 0.00 | 88 | 1014.6 |
| 20260505062452 | 53 | 275 | 4.0 | 7.0 | 0.00 | 0.00 | 0.00 | 88 | 1014.5 |
| 20260505061939 | 53 | 0 | 0.0 | 5.0 | 0.00 | 0.00 | 0.00 | 87 | 1014.5 |
| 20260505061426 | 53 | 0 | 0.0 | 5.0 | 0.00 | 0.00 | 0.00 | 87 | 1014.4 |
| 20260505060913 | 53 | 0 | 0.0 | 5.0 | 0.00 | 0.00 | 0.00 | 87 | 1014.5 |
| 20260505055847 | 53 | 0 | 0.0 | 5.0 | 0.00 | 0.00 | 0.00 | 87 | 1014.5 |
| 20260505055336 | 53 | 0 | 0.0 | 5.0 | 0.00 | 0.00 | 0.00 | 87 | 1014.5 |
| 20260505054821 | 53 | 0 | 0.0 | 5.0 | 0.00 | 0.00 | 0.00 | 87 | 1014.5 |
| 20260505054308 | 53 | 0 | 0.0 | 5.0 | 0.00 | 0.00 | 0.00 | 87 | 1014.7 |
| 20260505053755 | 53 | 225 | 0.0 | 5.0 | 0.00 | 0.00 | 0.00 | 87 | 1014.7 |
| 20260505053242 | 53 | 0 | 0.0 | 5.0 | 0.00 | 0.00 | 0.00 | 87 | 1014.7 |
| 20260505052729 | 53 | 261 | 0.0 | 5.0 | 0.00 | 0.00 | 0.00 | 87 | 1014.7 |
| 20260505052216 | 53 | 257 | 1.0 | 5.0 | 0.00 | 0.00 | 0.00 | 86 | 1014.7 |
| 20260505051703 | 53 | 0 | 0.0 | 5.0 | 0.00 | 0.00 | 0.00 | 86 | 1014.6 |
| 20260505051152 | 53 | 0 | 0.0 | 0.0 | 0.00 | 0.00 | 0.00 | 86 | 1014.6 |
| 20260505050637 | 53 | 246 | 0.0 | 7.0 | 0.00 | 0.00 | 0.00 | 86 | 1014.6 |
| 20260505050124 | 53 | 268 | 0.0 | 7.0 | 0.00 | 0.00 | 0.00 | 86 | 1014.6 |
| 20260505041427 | 53 | 278 | 0.0 | 10.0 | 0.00 | 0.00 | 0.00 | 85 | 1014.1 |
| 20260505040915 | 53 | 245 | 0.0 | 10.0 | 0.00 | 0.00 | 0.00 | 85 | 1014.0 |
| 20260505040401 | 53 | 252 | 3.0 | 10.0 | 0.00 | 0.00 | 0.00 | 85 | 1013.9 |
| 20260505035849 | 53 | 0 | 0.0 | 6.0 | 0.00 | 0.00 | 0.00 | 85 | 1013.9 |
| 20260505035336 | 53 | 256 | 0.0 | 5.0 | 0.00 | 0.00 | 0.00 | 84 | 1013.8 |
| 20260505034822 | 53 | 259 | 2.0 | 9.0 | 0.00 | 0.00 | 0.00 | 84 | 1013.8 |
| 20260505034309 | 53 | 0 | 0.0 | 9.0 | 0.00 | 0.00 | 0.00 | 84 | 1013.7 |
| 20260505033757 | 53 | 232 | 0.0 | 9.0 | 0.00 | 0.00 | 0.00 | 84 | 1013.7 |
| 20260505033243 | 53 | 0 | 0.0 | 9.0 | 0.00 | 0.00 | 0.00 | 84 | 1013.7 |
| 20260505032730 | 53 | 261 | 0.0 | 9.0 | 0.00 | 0.00 | 0.00 | 83 | 1013.7 |
| 20260505032217 | 53 | 278 | 4.0 | 9.0 | 0.00 | 0.00 | 0.00 | 83 | 1013.6 |
| 20260505031704 | 53 | 224 | 0.0 | 8.0 | 0.00 | 0.00 | 0.00 | 83 | 1013.6 |
| 20260505031152 | 53 | 236 | 0.0 | 8.0 | 0.00 | 0.00 | 0.00 | 83 | 1013.5 |
| 20260505030638 | 53 | 0 | 0.0 | 8.0 | 0.00 | 0.00 | 0.00 | 83 | 1013.5 |
| 20260505030125 | 53 | 0 | 0.0 | 8.0 | 0.00 | 0.00 | 0.00 | 83 | 1013.5 |
| 20260505025612 | 53 | 180 | 0.0 | 8.0 | 0.00 | 0.00 | 0.00 | 83 | 1013.3 |
| 20260505025059 | 53 | 284 | 0.0 | 6.0 | 0.00 | 0.00 | 0.00 | 83 | 1013.3 |
| 20260505024546 | 53 | 0 | 0.0 | 0.0 | 0.00 | 0.00 | 0.00 | 83 | 1013.4 |
| 20260505024034 | 53 | 291 | 0.0 | 9.0 | 0.00 | 0.00 | 0.00 | 83 | 1013.4 |
| 20260505023523 | 53 | 263 | 3.0 | 9.0 | 0.00 | 0.00 | 0.00 | 83 | 1013.3 |
| 20260505023007 | 53 | 291 | 5.0 | 9.0 | 0.00 | 0.00 | 0.00 | 83 | 1013.3 |
| 20260505022454 | 53 | 295 | 0.0 | 7.0 | 0.00 | 0.00 | 0.00 | 83 | 1013.3 |
| 20260505021941 | 54 | 295 | 0.0 | 8.0 | 0.00 | 0.00 | 0.00 | 82 | 1013.2 |
| 20260505021428 | 54 | 253 | 0.0 | 8.0 | 0.00 | 0.00 | 0.00 | 82 | 1013.2 |
| 20260505020915 | 54 | 254 | 3.0 | 8.0 | 0.00 | 0.00 | 0.00 | 82 | 1013.1 |
| 20260505020402 | 54 | 250 | 0.0 | 8.0 | 0.00 | 0.00 | 0.00 | 82 | 1013.2 |
| 20260505015849 | 54 | 203 | 3.0 | 11.0 | 0.00 | 0.00 | 0.00 | 82 | 1013.2 |
| 20260505015336 | 54 | 198 | 2.0 | 11.0 | 0.00 | 0.00 | 0.00 | 82 | 1013.2 |
| 20260505014823 | 54 | 257 | 3.0 | 11.0 | 0.00 | 0.00 | 0.00 | 81 | 1013.2 |
| 20260505014310 | 54 | 228 | 2.0 | 4.0 | 0.00 | 0.00 | 0.00 | 81 | 1013.2 |
| 20260505013757 | 54 | 310 | 4.0 | 12.0 | 0.00 | 0.00 | 0.00 | 81 | 1013.2 |
| 20260505012732 | 54 | 25 | 2.0 | 10.0 | 0.00 | 0.00 | 0.00 | 81 | 1013.4 |
| 20260505012219 | 54 | 246 | 6.0 | 10.0 | 0.00 | 0.00 | 0.00 | 81 | 1013.4 |
| 20260505011705 | 54 | 231 | 5.0 | 10.0 | 0.00 | 0.00 | 0.00 | 81 | 1013.5 |
| 20260505011152 | 54 | 253 | 5.0 | 10.0 | 0.00 | 0.00 | 0.00 | 81 | 1013.6 |
| 20260505010639 | 54 | 257 | 2.0 | 10.0 | 0.00 | 0.00 | 0.00 | 81 | 1013.6 |
| 20260505005613 | 55 | 274 | 4.0 | 10.0 | 0.00 | 0.00 | 0.00 | 81 | 1013.7 |
| 20260505004034 | 55 | 274 | 7.0 | 13.0 | 0.00 | 0.00 | 0.00 | 81 | 1013.8 |
| 20260505003521 | 55 | 264 | 5.0 | 14.0 | 0.00 | 0.00 | 0.00 | 81 | 1013.8 |
| 20260505003008 | 56 | 260 | 5.0 | 14.0 | 0.00 | 0.00 | 0.00 | 81 | 1013.8 |
| 20260505001942 | 55 | 259 | 5.0 | 13.0 | 0.00 | 0.00 | 0.00 | 81 | 1013.8 |
| 20260504234311 | 55 | 264 | 3.0 | 18.0 | 0.00 | 0.00 | 0.00 | 80 | 1013.8 |
| 20260504232219 | 57 | 268 | 9.0 | 17.0 | 0.00 | 0.00 | 0.00 | 80 | 1013.8 |
| 20260504231706 | 57 | 245 | 6.0 | 17.0 | 0.00 | 0.00 | 0.00 | 80 | 1013.8 |
| 20260504231154 | 57 | 275 | 9.0 | 17.0 | 0.00 | 0.00 | 0.00 | 80 | 1013.8 |
| 20260504224548 | 56 | 254 | 7.0 | 14.0 | 0.00 | 0.00 | 0.00 | 82 | 1014.1 |
| 20260504224035 | 56 | 225 | 7.0 | 14.0 | 0.00 | 0.00 | 0.00 | 83 | 1014.2 |
| 20260504223522 | 57 | 252 | 5.0 | 13.0 | 0.00 | 0.00 | 0.00 | 83 | 1014.2 |
| 20260504221943 | 56 | 263 | 5.0 | 18.0 | 0.00 | 0.00 | 0.00 | 84 | 1014.4 |
| 20260504221430 | 56 | 260 | 5.0 | 18.0 | 0.00 | 0.00 | 0.00 | 84 | 1014.5 |
| 20260504220404 | 57 | 264 | 6.0 | 15.0 | 0.00 | 0.00 | 0.00 | 85 | 1014.6 |
| 20260504215851 | 55 | 294 | 2.0 | 15.0 | 0.00 | 0.00 | 0.00 | 85 | 1014.6 |
| 20260504214825 | 56 | 263 | 5.0 | 9.0 | 0.00 | 0.00 | 0.00 | 86 | 1014.7 |
| 20260504213759 | 56 | 285 | 7.0 | 17.0 | 0.00 | 0.00 | 0.00 | 86 | 1014.6 |
| 20260504212220 | 55 | 215 | 6.0 | 16.0 | 0.00 | 0.00 | 0.00 | 86 | 1014.7 |
| 20260504211154 | 55 | 259 | 8.0 | 16.0 | 0.00 | 0.00 | 0.00 | 86 | 1014.8 |
| 20260504210641 | 55 | 264 | 8.0 | 14.0 | 0.00 | 0.00 | 0.00 | 86 | 1014.8 |
| 20260504210128 | 55 | 229 | 8.0 | 16.0 | 0.00 | 0.00 | 0.00 | 85 | 1014.8 |
| 20260504205615 | 55 | 296 | 7.0 | 16.0 | 0.00 | 0.00 | 0.00 | 86 | 1014.8 |
| 20260504205102 | 56 | 263 | 5.0 | 16.0 | 0.00 | 0.00 | 0.00 | 87 | 1014.7 |
| 20260504204549 | 55 | 243 | 5.0 | 13.0 | 0.00 | 0.00 | 0.00 | 87 | 1014.8 |
| 20260504204036 | 55 | 263 | 7.0 | 13.0 | 0.00 | 0.00 | 0.00 | 86 | 1014.7 |
| 20260504203523 | 54 | 121 | 4.0 | 13.0 | 0.00 | 0.00 | 0.00 | 88 | 1014.8 |
| 20260504202457 | 55 | 260 | 7.0 | 15.0 | 0.00 | 0.00 | 0.00 | 89 | 1014.9 |
| 20260504201944 | 55 | 294 | 6.0 | 15.0 | 0.00 | 0.00 | 0.00 | 89 | 1014.8 |
| 20260504201431 | 54 | 284 | 5.0 | 15.0 | 0.00 | 0.00 | 0.00 | 89 | 1014.9 |
| 20260504200918 | 54 | 214 | 4.0 | 10.0 | 0.00 | 0.00 | 0.00 | 89 | 1014.9 |
| 20260504200405 | 54 | 329 | 4.0 | 12.0 | 0.00 | 0.00 | 0.00 | 89 | 1014.9 |
| 20260504195852 | 54 | 302 | 5.0 | 12.0 | 0.00 | 0.00 | 0.00 | 89 | 1014.9 |
| 20260504194826 | 53 | 0 | 6.0 | 15.0 | 0.00 | 0.00 | 0.00 | 89 | 1014.8 |
| 20260504194313 | 54 | 267 | 5.0 | 15.0 | 0.00 | 0.00 | 0.00 | 89 | 1014.9 |
| 20260504193800 | 54 | 257 | 5.0 | 15.0 | 0.00 | 0.00 | 0.00 | 89 | 1014.8 |
| 20260504193247 | 54 | 282 | 4.0 | 12.0 | 0.00 | 0.00 | 0.00 | 89 | 1014.7 |
| 20260504192734 | 54 | 278 | 3.0 | 12.0 | 0.00 | 0.00 | 0.00 | 89 | 1014.7 |
| 20260504192221 | 54 | 242 | 0.0 | 12.0 | 0.00 | 0.00 | 0.00 | 89 | 1014.6 |
| 20260504191708 | 54 | 270 | 3.0 | 10.0 | 0.00 | 0.00 | 0.00 | 89 | 1014.6 |
| 20260504191155 | 54 | 175 | 4.0 | 10.0 | 0.00 | 0.00 | 0.00 | 90 | 1014.6 |
| 20260504190642 | 53 | 326 | 4.0 | 10.0 | 0.00 | 0.00 | 0.00 | 90 | 1014.6 |
| 20260504190129 | 54 | 289 | 4.0 | 10.0 | 0.00 | 0.00 | 0.00 | 90 | 1014.7 |
| 20260504185616 | 53 | 252 | 5.0 | 8.0 | 0.00 | 0.00 | 0.00 | 90 | 1014.7 |
| 20260504185103 | 53 | 273 | 8.0 | 14.0 | 0.00 | 0.00 | 0.00 | 90 | 1014.8 |
| 20260504184549 | 53 | 266 | 6.0 | 14.0 | 0.00 | 0.00 | 0.00 | 90 | 1014.9 |
| 20260504184036 | 53 | 257 | 7.0 | 14.0 | 0.00 | 0.00 | 0.00 | 89 | 1014.8 |
| 20260504183524 | 53 | 252 | 4.0 | 12.0 | 0.00 | 0.00 | 0.00 | 90 | 1014.9 |
| 20260504182457 | 53 | 261 | 4.0 | 7.0 | 0.00 | 0.00 | 0.00 | 90 | 1014.7 |
| 20260504181945 | 53 | 267 | 5.0 | 10.0 | 0.00 | 0.00 | 0.00 | 90 | 1014.7 |
| 20260504175852 | 53 | 197 | 3.0 | 11.0 | 0.00 | 0.00 | 0.00 | 90 | 1014.7 |
| 20260504175339 | 53 | 305 | 5.0 | 11.0 | 0.00 | 0.00 | 0.00 | 90 | 1014.7 |
| 20260504174826 | 53 | 267 | 1.0 | 13.0 | 0.00 | 0.00 | 0.00 | 90 | 1014.7 |
| 20260504174313 | 53 | 0 | 4.0 | 13.0 | 0.00 | 0.00 | 0.00 | 90 | 1014.6 |
| 20260504173800 | 53 | 287 | 5.0 | 13.0 | 0.00 | 0.00 | 0.00 | 90 | 1014.7 |
| 20260504173247 | 53 | 299 | 1.0 | 10.0 | 0.00 | 0.00 | 0.00 | 90 | 1014.7 |
| 20260504172734 | 52 | 267 | 4.0 | 10.0 | 0.00 | 0.00 | 0.00 | 90 | 1014.6 |
| 20260504172221 | 53 | 259 | 5.0 | 11.0 | 0.00 | 0.00 | 0.00 | 90 | 1014.6 |
| 20260504171708 | 53 | 212 | 4.0 | 11.0 | 0.00 | 0.00 | 0.00 | 90 | 1014.6 |
| 20260504170643 | 53 | 268 | 5.0 | 9.0 | 0.00 | 0.00 | 0.00 | 90 | 1014.6 |
| 20260504170129 | 53 | 266 | 1.0 | 7.0 | 0.00 | 0.00 | 0.00 | 91 | 1014.5 |
| 20260504160407 | 53 | 231 | 1.0 | 15.0 | 0.00 | 0.00 | 0.00 | 91 | 1014.2 |
| 20260504150643 | 52 | 226 | 0.0 | 10.0 | 0.00 | 0.00 | 0.00 | 92 | 1014.1 |
| 20260504150130 | 52 | 183 | 1.0 | 10.0 | 0.00 | 0.00 | 0.00 | 92 | 1014.1 |